User: anonymous   Login
Location: Betra
(48.4113°N, 8.6634°E)
Time: 09:18:58
(UTC+00:00)
Language:

Genesis I - Orbit

View from above orbital plane
View from above orbital plane
View from above satellite
View from above satellite

Ground track
Ground track

The orbit data is extracted from the following two-line orbital elements,

1 29252U 06029A   24197.88849135  .00020838  00000-0  51797-3 0  9999
2 29252  64.5158  69.0930 0026938 318.6246  41.2847 15.39973455995006
Epoch (UTC): 15 July 2024 21:19:25
Eccentricity: 0.0026938
inclination: 64.5158°
perigee height: 428 km
apogee height: 464 km
right ascension of ascending node: 69.0930°
argument of perigee: 318.6246°
revolutions per day: 15.39973455
mean anomaly at epoch: 41.2847°
orbit number at epoch: 99500

The dashed part of the orbit path shows where the satellite is in the earth's shadow,  

DLR